User: anonymous   Login
Location: Unspecified
(0.0000°N, 0.0000°E)
Time: 15:06:42
(UTC+00:00)
Language:

SICRAL 1 - Orbit

View from above orbital plane
View from above orbital plane
View from above satellite
View from above satellite

Ground track
Ground track

The orbit data is extracted from the following two-line orbital elements,

1 26694U 01005A   18172.33908471 0.00000000  00000-0  00000-0 0    00
2 26694   7.8799  47.8419 0007391 269.2203  90.7016  1.00270000    09
Epoch (UTC): 21 June 2018 08:08:16
Eccentricity: 0.0007391
inclination: 7.8799°
perigee height: 35755 km
apogee height: 35818 km
right ascension of ascending node: 47.8419°
argument of perigee: 269.2203°
revolutions per day: 1.00270000
mean anomaly at epoch: 90.7016°
orbit number at epoch: 0

The dashed part of the orbit path shows where the satellite is in the earth's shadow,  

DLR